Location: Newark
(50.0336°N, 22.0047°E)
Time: 12:19:30
(UTC+00:00)

Envisat - Pass Details

Date: 28 January 2020
Orbit: 764 x 766 km, 98.1° (Epoch: 20 February)

Event Time Altitude Azimuth Distance (km) Brightness Sun altitude
Rises 17:17:29 0° 199° (SSW) 3,221 6.6 -19.0°
Reaches altitude 10° 17:20:10 10° 212° (SSW) 2,300 6.0 -19.4°
Maximum altitude 17:24:20 25° 268° (W) 1,504 5.3 -20.1°
Drops below altitude 10° 17:28:31 10° 323° (NW) 2,314 5.9 -20.8°
Sets 17:31:14 0° 337° (NNW) 3,245 6.5 -21.2°
